CW1780 Weather Reports


time (UTC)temp
F
wind
direction
speed
knots
gust
knots
rain 1hr
in
rain 24hr
in
rain mn
in
humidity
%
barometer
mb
20260504082003 41 0 0.0 0.0 0.00 0.00 0.00 77 1015.8
20260504081004 41 0 0.0 0.0 0.00 0.00 0.00 77 1015.8
20260504050003 43 0 0.0 0.0 0.00 0.00 0.00 68 1016.4
20260504045003 43 0 0.0 0.0 0.00 0.00 0.00 68 1016.3
20260504044003 43 0 0.0 0.0 0.00 0.00 0.00 67 1016.4
20260504043003 43 0 0.0 0.0 0.00 0.00 0.00 67 1016.2
20260504042003 44 0 0.0 0.0 0.00 0.00 0.00 66 1016.3
20260504041003 44 0 0.0 0.0 0.00 0.00 0.00 64 1016.3
20260504040004 44 0 0.0 0.0 0.00 0.00 0.00 64 1016.3
20260504035003 44 0 0.0 0.0 0.00 0.00 0.00 64 1016.2
20260504034003 44 0 0.0 0.0 0.00 0.00 0.00 65 1016.2
20260504033003 43 0 0.0 0.0 0.00 0.00 0.00 67 1016.2
20260504032003 43 0 0.0 0.0 0.00 0.00 0.00 67 1016.4
20260504031003 43 0 0.0 0.0 0.00 0.00 0.00 68 1016.4
20260504030003 43 0 0.0 0.0 0.00 0.00 0.00 67 1016.4
20260504025003 43 0 0.0 0.0 0.00 0.00 0.00 66 1016.2
20260504024003 43 0 0.0 0.0 0.00 0.00 0.00 65 1016.4
20260504023003 44 0 0.0 0.0 0.00 0.00 0.00 63 1016.2
20260504022003 44 0 0.0 0.0 0.00 0.00 0.00 61 1016.4
20260504021003 45 0 0.0 0.0 0.00 0.00 0.00 60 1016.4
20260504020003 46 0 0.0 0.0 0.00 0.00 0.00 59 1016.2
20260504015003 47 0 0.0 0.0 0.00 0.00 0.00 57 1016.2
20260504014003 48 0 0.0 0.0 0.00 0.00 0.00 54 1015.9
20260504013025 48 0 0.0 0.0 0.00 0.00 0.00 51 1015.8
20260504012003 49 0 0.0 0.0 0.00 0.00 0.00 49 1016.0
20260504011003 50 0 0.0 0.0 0.00 0.00 0.00 47 1015.9
20260504010004 51 0 0.0 0.0 0.00 0.00 0.00 46 1015.8
20260504005004 52 0 0.0 0.0 0.00 0.00 0.00 44 1015.5
20260504004003 52 299 0.0 2.6 0.00 0.00 0.00 43 1015.5
20260504003003 52 116 0.0 2.6 0.00 0.00 0.00 43 1015.5
20260504002003 53 118 0.0 2.6 0.00 0.00 0.00 43 1015.4
20260504001003 53 108 0.0 2.6 0.00 0.00 0.00 41 1015.4
20260504000003 54 296 0.0 3.5 0.00 0.00 0.00 41 1015.3
20260503235003 55 292 0.9 6.1 0.00 0.00 0.00 39 1015.4
20260503234003 56 59 0.9 6.1 0.00 0.00 0.00 37 1015.4
20260503233003 56 135 0.9 4.3 0.00 0.00 0.00 37 1015.5
20260503232003 57 65 0.9 7.8 0.00 0.00 0.00 35 1015.4
20260503231024 57 80 0.9 7.0 0.00 0.00 0.00 35 1015.3
20260503230024 58 318 0.9 7.0 0.00 0.00 0.00 35 1015.3
20260503225003 58 60 0.9 9.6 0.00 0.00 0.00 34 1015.3
20260503224003 58 85 0.9 8.7 0.00 0.00 0.00 33 1015.2
20260503223003 59 89 0.9 5.2 0.00 0.00 0.00 34 1015.4
20260503222003 59 71 0.9 7.8 0.00 0.00 0.00 33 1015.4
20260503221003 60 97 0.9 8.7 0.00 0.00 0.00 33 1015.4
20260503220024 59 89 1.7 5.2 0.00 0.00 0.00 33 1015.3
20260503215003 60 34 0.9 9.6 0.00 0.00 0.00 31 1015.5
20260503214003 60 91 1.7 7.8 0.00 0.00 0.00 34 1015.5
20260503213003 60 63 0.9 7.0 0.00 0.00 0.00 31 1015.4
20260503212024 61 114 0.9 4.3 0.00 0.00 0.00 30 1015.4
20260503211003 61 95 0.9 4.3 0.00 0.00 0.00 33 1015.5
20260503210003 60 80 0.9 6.1 0.00 0.00 0.00 30 1015.5
20260503205024 60 109 0.9 7.8 0.00 0.00 0.00 31 1015.5
20260503204003 60 65 0.9 6.1 0.00 0.00 0.00 29 1015.7
20260503203003 60 312 0.9 7.8 0.00 0.00 0.00 29 1015.8
20260503202003 60 71 0.9 7.0 0.00 0.00 0.00 30 1015.9
20260503201003 60 81 1.7 5.2 0.00 0.00 0.00 29 1016.0
20260503200003 60 84 0.9 6.1 0.00 0.00 0.00 30 1016.0
20260503195003 59 71 0.9 7.0 0.00 0.00 0.00 31 1016.3
20260503194003 59 82 0.9 6.1 0.00 0.00 0.00 31 1016.2
20260503193024 58 65 0.9 5.2 0.00 0.00 0.00 35 1016.5
20260503192003 58 81 1.7 7.0 0.00 0.00 0.00 35 1016.7
20260503191003 58 24 0.9 7.8 0.00 0.00 0.00 32 1016.7
20260503190003 58 22 0.9 6.1 0.00 0.00 0.00 33 1016.8
20260503185003 57 323 0.9 4.3 0.00 0.00 0.00 33 1017.0
20260503184003 57 350 0.9 7.0 0.00 0.00 0.00 35 1017.1
20260503183003 57 26 0.9 5.2 0.00 0.00 0.00 33 1017.0
20260503182004 57 87 0.9 5.2 0.00 0.00 0.00 34 1017.2
20260503181004 56 256 0.9 5.2 0.00 0.00 0.00 32 1017.3
20260503180004 55 327 0.9 4.3 0.00 0.00 0.00 32 1017.5
20260503175003 54 310 0.9 6.1 0.00 0.00 0.00 35 1017.8
20260503174003 54 74 0.9 2.6 0.00 0.00 0.00 41 1017.9
20260503173003 54 96 0.9 6.1 0.00 0.00 0.00 36 1017.9
20260503172024 54 77 0.9 2.6 0.00 0.00 0.00 39 1017.9
20260503171003 54 91 0.9 5.2 0.00 0.00 0.00 32 1018.2
20260503131003 42 42 0.9 6.1 0.00 0.00 0.00 50 1019.1